sat.trackr.live / text

‹ back to catalog

STARLINK-35626

NORAD 66233 · 2025-244AD

PAYLOAD ACTIVE UNKNOWN

§ Identity

Operator
Country
US
Launch date
2025-10-28
Launch site
AFWTR
Launch vehicle
Mass (kg)
RCS (m²)

Purposes: comms

External: N2YO · Heavens-Above · Gunter

§ Orbital elements

Epoch: 2026-09-20T13:09:48.871584Z

Period
93.85 min
Inclination
53.1594°
Eccentricity
0.0001197
Mean motion
15.34397259 rev/d
Perigee alt
461.9 km
Apogee alt
463.5 km
Semi-major
6,840.8 km
B*
5.6331e-4
RAAN
43.3605°
Arg perigee
92.8290°
Mean anomaly
267.2850°
Rev number
5,151

§ Raw data

STARLINK-356261 66233U 25244AD  26263.54848231  .00018702  00000+0  56331-3 0  99992 66233  53.1594  43.3605 0001197  92.8290 267.2850 15.34397259 51518

JSON: /api/v1/satellites/66233 · /tle

For live sub-satellite position, see the globe view (requires WebGL).

§ Visibility from observer

Set your observer location to see the next 7 days of passes ≥ 10°. The values pass through the URL so the page stays shareable.

No JS? Fill the form by hand. The geolocation button needs JavaScript.